Corpus Christi, TX

12:49 AM CDT on July 28, 2017 (GMT -0500)
Corpus Christi International

Weather History for KCRP - October, 2013

Change the Weather History Date:

Monday, October 7, 2013

  Actual Average Record
Temperature  
Mean Temperature 72 °F 77 °F  
Max Temperature 88 °F 86 °F 94 °F (1990)
Min Temperature 56 °F 67 °F 48 °F (1964)
Degree Days  
Heating Degree Days 0 0  
Month to date heating degree days 0 0  
Since 1 July heating degree days 0 0  
Cooling Degree Days 7 12  
Month to date cooling degree days 110 87  
Year to date cooling degree days 3705 3130  
Growing Degree Days 22 (Base 50)    
Moisture  
Dew Point 49 °F    
Average Humidity 49    
Maximum Humidity 80    
Minimum Humidity 17    
Precipitation  
Precipitation 0.00 in 0.12 in 2.43 in (1984)
Month to date precipitation 0.38 0.85  
Year to date precipitation 17.70 25.17  
Snow  
Snow 0.00 in - - ()
Month to date snowfall 0.0  
Since 1 July snowfall 0.0  
Since 1 September snowfall 0.0  
Snow Depth 0.00 in    
Sea Level Pressure  
Sea Level Pressure 30.09 in    
Wind  
Wind Speed 8 mph (North)    
Max Wind Speed 12 mph    
Max Gust Speed -    
Visibility 10 miles    
Events      
T = Trace of Precipitation, MM = Missing Value Source: NWS Daily Summary

Daily Weather History Graph

Daily Weather History Graph

Search for Another Location

Airport or City:

Trip Planner

Search our weather history database for the weather conditions in past years. The results will help you decide how hot, cold, wet, or windy it might be!

Date:

Astronomy

Oct. 07, 2013 Rise Set
Actual Time 7:25 AM CDT 7:09 PM CDT
Civil Twilight 7:02 AM CDT 7:32 PM CDT
Nautical Twilight 6:35 AM CDT 7:59 PM CDT
Astronomical Twilight 6:08 AM CDT 8:26 PM CDT
Moon 10:01 AM CDT (10/7) 9:12 PM CDT (10/7)
Length of Visible Light 12h 29m
Length of Day
11h 43m
Waxing Crescent, 9% of the Moon is Illuminated
Oct 7
Waxing Crescent
Oct 11
First Quarter
Oct 18
Full
Oct 26
Last Quarter
Nov 3
New

Hourly Weather History & Observations

Time (CDT) Temp. Dew Point Humidity Pressure Visibility Wind Dir Wind Speed Gust Speed Precip Events Conditions
12:51 AM 60.1 °F 53.1 °F 78% 30.10 in 10.0 mi WNW 8.1 mph - N/A   Clear
1:51 AM 59.0 °F 53.1 °F 81% 30.10 in 10.0 mi NW 6.9 mph - N/A   Clear
2:51 AM 57.9 °F 51.1 °F 78% 30.10 in 10.0 mi NW 5.8 mph - N/A   Clear
3:51 AM 57.9 °F 50.0 °F 75% 30.09 in 10.0 mi NW 8.1 mph - N/A   Clear
4:51 AM 57.9 °F 50.0 °F 75% 30.09 in 10.0 mi NW 10.4 mph - N/A   Clear
5:51 AM 57.9 °F 50.0 °F 75% 30.10 in 10.0 mi NW 9.2 mph - N/A   Clear
6:51 AM 57.0 °F 50.0 °F 77% 30.11 in 10.0 mi NW 6.9 mph - N/A   Clear
7:51 AM 57.0 °F 51.1 °F 81% 30.13 in 10.0 mi NNW 5.8 mph - N/A   Clear
8:51 AM 64.0 °F 52.0 °F 65% 30.14 in 10.0 mi NNW 10.4 mph - N/A   Clear
9:51 AM 71.1 °F 51.1 °F 49% 30.15 in 10.0 mi NNW 9.2 mph - N/A   Clear
10:51 AM 77.0 °F 52.0 °F 42% 30.16 in 10.0 mi North 9.2 mph - N/A   Clear
11:51 AM 81.0 °F 44.1 °F 27% 30.15 in 10.0 mi North 10.4 mph - N/A   Clear
12:51 PM 82.9 °F 41.0 °F 23% 30.14 in 10.0 mi NNE 5.8 mph - N/A   Clear
1:51 PM 84.9 °F 36.0 °F 17% 30.10 in 10.0 mi NNE 10.4 mph - N/A   Clear
2:51 PM 86.0 °F 39.9 °F 20% 30.07 in 10.0 mi North 9.2 mph - N/A   Clear
3:51 PM 87.1 °F 41.0 °F 20% 30.06 in 10.0 mi NE 11.5 mph - N/A   Clear
4:51 PM 86.0 °F 41.0 °F 20% 30.04 in 10.0 mi East 8.1 mph - N/A   Clear
5:51 PM 82.0 °F 46.9 °F 29% 30.04 in 10.0 mi ESE 10.4 mph - N/A   Clear
6:51 PM 78.1 °F 48.9 °F 36% 30.04 in 10.0 mi ESE 8.1 mph - N/A   Clear
7:51 PM 72.0 °F 52.0 °F 49% 30.06 in 10.0 mi SE 6.9 mph - N/A   Clear
8:51 PM 71.1 °F 53.1 °F 53% 30.07 in 10.0 mi SSE 4.6 mph - N/A   Clear
9:51 PM 66.9 °F 53.1 °F 61% 30.08 in 10.0 mi South 3.5 mph - N/A   Clear
10:51 PM 64.0 °F 54.0 °F 70% 30.08 in 10.0 mi South 6.9 mph - N/A   Clear
11:51 PM 66.0 °F 55.0 °F 68% 30.07 in 10.0 mi Calm Calm - N/A   Clear